User: anonymous   Login
Location: State Camp
(41.2367°N, 77.7828°W)
Time: 09:13:26
(UTC-04:00)
Language:

Cosmos 1674 Rocket - Orbit

View from above orbital plane
View from above orbital plane
View from above satellite
View from above satellite

Ground track
Ground track

The orbit data is extracted from the following two-line orbital elements,

1 15945U 85069B   15188.19623202  .00000294  00000-0  32473-4 0  9998
2 15945 082.5281 078.7942 0021350 106.9919 253.3638 14.83721450615596
Epoch (UTC): 07 July 2015 04:42:34
Eccentricity: 0.0021350
inclination: 82.5281°
perigee height: 602 km
apogee height: 632 km
right ascension of ascending node: 78.7942°
argument of perigee: 106.9919°
revolutions per day: 14.83721450
mean anomaly at epoch: 253.3638°
orbit number at epoch: 61559

The dashed part of the orbit path shows where the satellite is in the earth's shadow,  

DLR